Theta_e
307 308 308 309 310 310 311 312 312 311 310 311 312 312 313 315 316 317 319 320 321 322 322 322 323 323 323 323 322 322 321 321 321 321 321 321 321 320 320 320 320 320 320 320 320 320 320 320 320 320 319 319 319 318 318 319 319 318 318 318 317 317
306 307 307 307 308 308 309 310 309 308 310 310 310 311 312 313 314 315 317 318 320 321 321 322 322 322 323 323 322 321 321 321 321 321 321 321 320 320 320 320 320 319 319 320 320 319 319 319 319 319 319 319 319 318 318 318 318 318 318 318 318 318
307 306 305 306 307 307 307 308 309 310 309 309 309 310 311 312 313 315 316 317 318 318 320 321 321 321 322 322 322 321 321 321 320 321 322 321 320 320 319 319 319 319 319 319 318 319 319 319 319 319 319 318 318 318 318 317 317 317 317 317 317 318
307 307 303 301 302 304 305 307 308 307 308 309 310 310 311 311 312 313 315 316 317 317 318 319 321 321 321 321 321 321 321 321 321 321 320 320 320 319 319 319 320 319 319 319 319 318 319 319 319 318 318 318 317 317 318 317 316 316 316 317 317 317
307 306 304 304 304 306 306 305 305 307 308 308 308 309 309 310 311 310 311 313 315 316 317 318 319 320 320 320 321 320 321 321 321 320 319 319 320 319 319 319 319 319 319 318 318 318 318 318 318 318 317 317 317 317 317 317 316 316 315 315 316 316
303 301 302 303 303 303 303 304 305 305 305 305 304 305 307 306 306 306 306 308 310 312 314 316 316 316 318 318 319 319 320 320 320 318 318 319 319 318 318 319 319 318 318 318 317 317 317 317 317 316 316 317 317 316 316 316 316 315 315 315 315 315
301 301 302 303 304 303 303 303 302 301 301 298 301 303 303 302 301 302 304 304 306 306 308 309 310 312 313 315 317 317 317 316 315 314 315 317 317 318 317 315 316 317 317 318 317 317 316 316 316 316 316 316 317 316 316 315 315 315 314 314 314 309
302 301 300 302 302 302 300 297 297 297 297 298 298 299 296 296 296 296 298 298 300 302 302 303 304 307 310 312 313 314 313 313 313 313 313 315 318 316 314 315 312 314 315 315 316 316 316 315 315 315 316 316 315 315 315 315 314 314 314 314 314 314
300 300 300 299 298 295 296 294 296 293 294 295 292 293 293 293 294 293 293 294 295 299 300 300 301 303 304 306 308 309 309 310 310 311 312 310 312 312 311 310 311 310 313 314 314 315 315 315 314 315 315 315 315 315 314 314 313 313 313 314 314 314
298 297 297 296 297 295 294 294 294 294 292 293 292 290 289 294 291 292 292 293 294 296 298 297 296 297 300 302 303 305 306 308 307 308 308 305 308 309 310 310 311 311 310 313 313 314 313 313 313 313 314 314 314 313 313 313 313 313 313 312 313 313
301 300 298 297 294 294 294 293 292 289 290 290 291 289 291 288 290 291 291 292 293 295 295 292 292 295 296 297 299 302 303 305 305 305 305 305 307 308 309 310 310 309 308 308 310 310 309 311 312 313 312 312 312 313 313 313 312 312 312 312 313 313
298 298 298 296 295 295 295 293 292 290 290 292 290 290 291 288 290 291 291 292 293 291 290 291 291 295 294 296 299 301 301 302 302 303 304 305 306 307 306 306 306 308 309 309 307 307 307 309 313 306 304 305 312 313 314 313 311 311 311 311 312 313
299 298 299 299 297 296 296 295 293 290 289 290 289 290 289 288 289 289 290 293 291 289 289 290 292 292 294 297 296 295 297 300 299 300 302 303 303 304 303 304 306 306 306 307 307 307 307 309 311 303 304 303 304 309 312 312 312 311 311 312 312 313
299 300 300 299 297 294 292 293 290 288 291 289 288 287 287 287 288 289 290 290 290 289 289 288 290 292 292 291 295 295 295 295 296 299 301 300 299 301 299 302 305 306 304 305 305 306 307 308 302 303 303 302 302 302 309 313 313 313 313 313 313 314
299 300 299 294 296 296 294 292 291 291 290 287 287 287 288 289 289 289 289 288 288 289 288 288 290 291 290 293 294 293 293 295 298 299 298 300 300 298 300 304 303 303 302 302 304 305 305 305 301 301 300 300 300 300 302 312 314 314 313 314 314 314
298 296 292 291 290 290 290 289 290 291 290 288 287 286 288 289 288 288 287 287 287 287 288 288 289 290 292 291 291 292 293 294 298 297 296 297 297 300 302 299 302 302 301 302 303 304 303 304 300 299 299 299 299 300 301 308 311 312 313 313 313 313
289 287 288 288 287 287 289 291 291 290 289 288 287 285 285 285 287 287 286 287 287 286 287 288 288 289 290 289 290 290 292 294 294 295 297 297 300 301 302 302 301 302 301 302 303 304 305 307 301 299 299 299 299 299 299 305 307 308 309 311 311 311
286 287 287 286 285 286 286 287 288 289 290 289 287 286 285 286 287 287 286 287 287 287 286 287 287 288 288 288 288 289 291 292 294 296 294 293 294 295 297 297 298 298 299 299 299 300 303 302 301 300 299 298 299 298 301 303 304 305 307 308 310 310
285 285 285 285 285 285 285 285 286 287 288 288 287 286 286 287 287 286 286 287 287 286 286 287 287 287 287 287 288 288 288 289 290 290 290 293 292 292 293 296 296 296 297 296 296 298 300 300 299 299 298 298 297 298 298 299 300 302 304 306 308 308
285 284 285 285 285 285 285 285 286 286 286 286 286 286 286 285 285 285 285 285 286 286 285 285 287 287 287 287 287 287 286 286 285 287 287 291 292 291 293 295 294 294 294 295 297 297 299 300 297 297 297 297 297 296 298 298 299 301 302 303 305 306
284 284 284 284 285 285 284 285 286 286 285 285 285 285 285 284 284 284 284 284 284 284 284 284 285 286 287 287 286 285 286 285 286 284 284 287 290 289 290 290 291 291 291 291 292 289 293 295 293 293 294 295 295 295 297 297 297 298 299 301 302 302
285 284 284 284 284 284 285 285 286 285 285 285 286 286 285 284 284 283 283 283 284 284 284 284 284 285 285 284 284 283 284 284 284 284 285 286 286 286 286 286 287 288 288 287 288 290 291 291 292 290 292 293 294 294 295 295 295 295 296 297 296 296
285 284 284 284 283 284 285 286 286 285 285 285 286 285 285 285 284 283 283 283 284 284 284 284 284 284 284 284 283 282 282 282 283 284 285 285 284 285 285 285 285 285 285 285 285 287 288 290 290 290 291 292 293 294 293 294 294 295 295 294 293 295
284 284 284 283 284 285 286 287 286 286 286 285 285 285 285 286 286 285 283 283 283 284 285 286 285 285 285 284 284 286 285 283 282 282 282 282 283 284 283 282 282 282 284 283 282 283 286 286 286 287 289 290 291 292 293 292 293 293 293 292 293 294
284 284 284 284 284 285 286 287 286 286 286 285 285 286 286 286 286 286 285 284 285 285 286 286 286 286 286 286 285 285 284 282 283 283 283 282 282 282 282 281 282 282 283 284 284 283 284 284 285 286 286 288 290 291 292 292 292 292 292 292 291 291
284 284 284 284 285 285 286 286 286 285 285 284 285 285 286 286 286 286 286 286 286 286 286 286 286 286 286 286 286 286 286 285 284 282 282 281 281 281 283 282 281 282 282 284 285 285 283 283 284 285 286 286 288 290 291 292 292 292 290 290 291 291
284 284 284 284 284 285 285 286 285 284 284 285 285 285 285 285 286 286 286 286 286 286 286 286 286 286 286 286 286 286 286 286 285 286 285 284 284 282 282 282 280 282 282 283 284 285 285 284 283 284 285 286 286 288 289 290 291 291 291 289 289 289
285 285 285 285 285 285 285 285 284 283 284 285 284 284 284 285 285 285 285 286 286 286 286 286 286 286 286 286 286 286 285 285 285 285 285 285 284 284 284 284 283 284 283 284 284 285 285 285 284 284 284 285 285 286 287 288 287 286 287 287 287 288
285 285 285 284 284 284 285 285 285 285 285 284 284 284 285 285 285 285 285 285 285 285 285 285 285 285 285 285 286 286 286 286 285 286 286 285 285 284 284 284 283 284 284 284 285 285 285 285 284 284 283 284 284 284 285 286 286 286 286 286 287 287
284 284 284 284 284 284 284 284 284 285 285 285 285 285 285 285 285 285 285 285 285 285 285 285 284 285 285 285 285 285 285 286 286 285 285 285 285 285 286 285 285 285 285 285 285 285 286 286 286 286 285 286 285 285 285 285 285 286 286 286 287 287
284 284 284 284 284 284 283 283 284 285 285 285 285 285 284 284 284 285 285 285 285 285 285 285 285 284 284 285 285 285 284 284 285 285 285 286 285 285 285 285 286 286 285 285 285 285 286 286 287 287 288 287 287 287 286 286 286 286 286 286 288 287
283 283 283 283 284 284 283 284 284 284 284 284 284 284 284 284 284 284 284 284 284 284 284 284 284 284 284 284 284 284 285 285 285 286 285 285 286 286 286 286 286 286 286 285 286 286 286 286 288 288 288 288 287 288 288 288 288 289 287 287 289 287
283 283 282 283 283 283 282 282 282 283 283 283 284 283 283 283 283 283 283 284 284 284 284 284 284 284 284 284 284 284 284 284 286 286 286 286 285 286 286 286 287 287 286 286 285 286 287 287 287 287 287 287 287 288 288 288 288 288 288 289 287 286
281 281 281 282 282 281 281 281 280 280 281 282 282 283 283 283 283 282 283 283 283 283 283 283 283 283 283 283 284 284 284 284 284 285 286 287 287 286 286 287 287 287 287 287 286 285 286 287 287 287 287 287 286 286 287 287 288 288 288 289 289 286
279 280 280 280 280 280 280 279 278 277 277 278 280 280 280 281 281 281 282 282 282 282 283 282 282 282 282 282 282 283 283 283 283 282 283 285 286 286 286 286 286 286 287 287 287 287 286 287 287 287 287 286 286 286 286 287 288 288 289 289 286 286
278 278 277 277 277 278 278 276 275 274 274 275 276 278 278 278 279 280 280 280 280 281 281 280 280 281 281 281 282 282 282 282 282 282 282 282 283 284 285 287 287 286 286 287 287 287 287 287 287 287 286 286 286 287 287 287 286 288 289 288 286 286
275 275 275 276 276 276 274 273 273 273 273 273 274 275 276 276 277 278 278 279 279 279 279 278 279 279 280 280 280 280 281 281 282 282 282 281 281 281 281 283 284 285 286 286 286 286 286 286 287 287 287 287 287 287 288 288 285 285 285 285 285 285
273 272 273 273 274 274 272 271 272 272 272 272 272 272 273 274 275 275 276 276 276 276 276 276 277 278 278 279 279 280 280 281 281 280 281 281 282 281 281 282 283 283 284 285 285 285 286 286 286 286 287 287 287 287 287 285 284 284 284 284 284 285
Wind_Speed
16 16 16 16 14 12 14 14 14 11 9 11 13 16 16 18 16 15 14 16 14 14 17 19 19 18 17 16 16 14 13 14 14 15 16 14 12 12 11 11 12 12 12 13 14 12 14 14 14 14 13 14 13 13 13 13 12 12 14 12 11 11
15 15 16 14 13 13 13 13 9 8 10 10 12 12 10 10 12 12 13 15 14 15 14 15 15 16 16 16 15 15 15 15 15 16 15 16 12 10 11 12 12 13 13 13 13 13 13 13 14 14 14 13 13 13 12 12 12 14 15 13 11 10
16 14 11 11 10 9 9 9 11 12 10 10 10 11 13 12 13 12 14 13 15 16 16 16 15 16 15 15 14 15 15 15 15 14 14 11 11 11 12 12 13 13 13 13 13 14 14 14 14 13 12 12 14 13 13 12 12 14 14 12 12 12
17 15 8 6 6 7 8 10 8 9 9 11 10 10 11 12 12 11 12 11 12 13 15 15 13 14 13 14 14 15 15 14 14 14 11 11 12 11 12 13 12 11 12 12 13 13 13 13 13 12 11 13 14 14 11 12 13 13 14 12 13 13
16 14 10 9 10 11 11 9 9 10 9 9 8 10 12 10 10 7 6 8 9 12 12 12 12 11 12 14 13 14 15 14 14 11 12 12 11 10 11 12 11 11 11 11 12 12 12 13 12 11 12 13 14 15 13 13 13 14 14 14 15 14
10 8 8 9 9 9 10 9 8 8 7 7 6 9 10 6 6 5 5 6 9 9 9 11 10 10 11 12 12 14 14 13 11 9 10 11 10 10 10 10 10 10 10 12 12 12 12 12 12 12 12 14 14 14 14 13 13 14 14 15 15 13
12 8 8 10 10 9 8 8 7 6 7 5 7 8 7 5 4 5 5 6 8 8 9 9 8 9 11 12 11 13 11 10 9 8 10 10 10 11 10 9 8 9 10 12 12 12 12 12 12 13 13 13 13 14 14 14 13 13 14 14 14 13
11 11 9 9 10 9 7 6 6 6 5 7 5 6 5 4 2 4 5 5 7 8 8 9 8 10 10 11 10 10 9 9 8 9 9 10 12 10 8 9 8 9 11 11 11 11 12 12 12 13 14 14 13 13 13 13 13 13 14 13 13 13
12 9 9 8 8 6 6 5 6 5 6 7 5 4 4 3 3 4 4 5 6 7 8 7 8 7 7 7 8 7 7 8 8 9 10 8 9 8 8 8 9 9 10 11 11 12 12 12 11 12 13 13 12 13 13 12 12 12 12 12 13 12
12 11 9 7 7 8 8 7 8 6 5 5 3 3 4 5 4 5 5 5 6 6 7 5 5 6 6 6 6 6 7 7 7 8 7 6 8 9 9 10 11 10 10 11 11 11 10 10 11 11 12 12 12 11 12 12 12 12 11 11 11 11
10 12 12 10 6 7 10 9 5 4 4 5 6 4 6 4 4 5 5 5 6 8 6 5 5 5 6 6 6 6 7 7 7 7 7 8 9 9 10 9 9 9 9 9 9 9 8 10 11 11 11 11 11 11 11 12 12 11 11 11 11 11
7 8 9 12 9 7 9 9 7 5 6 7 6 5 6 4 5 5 5 6 7 5 4 5 5 5 5 5 6 6 6 6 7 7 7 8 9 9 8 8 8 9 10 10 9 8 8 9 9 12 17 15 11 11 11 10 10 10 10 11 11 11
7 7 7 8 8 7 7 7 7 5 5 6 5 6 4 4 5 5 6 7 5 4 4 4 4 4 4 5 5 5 5 6 6 6 7 7 8 9 8 8 9 10 9 10 9 9 9 10 10 16 15 16 16 11 9 10 10 10 10 11 12 12
8 8 8 9 8 6 6 7 5 3 6 5 5 5 1 3 4 4 4 5 4 4 4 4 3 3 4 4 5 5 5 5 5 6 7 6 7 7 5 7 9 9 7 8 8 9 10 10 12 15 14 15 16 14 10 9 9 9 10 11 12 12
8 9 8 5 5 7 7 7 7 5 5 3 4 1 1 1 2 3 4 4 4 4 4 3 4 4 4 5 4 4 3 4 4 5 4 6 5 2 5 7 5 6 6 6 8 9 8 8 10 12 12 13 13 14 12 8 9 9 10 10 11 11
6 5 4 2 1 1 4 5 6 8 5 1 1 2 1 0 1 1 3 3 4 4 3 3 3 4 4 2 1 1 2 2 4 4 4 3 2 5 6 5 6 5 5 6 7 7 6 8 8 11 12 13 14 14 13 9 10 10 10 10 10 10
3 2 0 3 4 3 6 8 7 7 6 2 2 1 2 2 1 2 3 4 4 3 3 2 3 4 4 3 3 3 3 4 4 4 4 3 4 5 6 5 5 6 5 5 6 6 7 6 6 10 12 12 13 13 12 7 8 8 8 9 9 9
3 2 1 0 3 4 3 4 7 7 6 5 3 3 3 3 5 5 5 5 6 6 4 3 4 4 4 4 3 3 4 4 4 4 3 3 4 3 1 2 2 4 4 4 4 4 6 4 4 6 7 8 8 8 6 5 6 7 8 9 9 9
3 3 2 1 3 3 3 3 3 3 2 4 5 4 4 6 7 7 7 6 7 6 4 2 2 4 4 3 3 4 4 3 3 3 1 2 3 3 3 3 3 2 3 3 3 4 5 4 3 1 2 2 2 1 2 3 4 6 8 11 10 10
2 1 1 3 3 2 1 0 0 2 5 6 6 6 6 7 7 6 6 6 7 8 7 4 1 2 3 2 3 4 4 2 2 2 2 3 4 4 5 4 4 3 3 4 5 5 7 7 4 5 7 7 7 5 4 4 5 7 8 9 9 8
1 2 3 3 5 5 3 2 5 7 6 5 5 6 8 8 7 7 7 7 7 7 7 6 4 1 1 3 4 2 3 3 3 1 0 2 1 3 2 2 2 3 3 3 4 6 6 7 6 6 7 8 8 6 4 5 6 9 10 9 10 8
4 5 6 6 5 3 1 4 8 9 7 5 5 9 9 8 6 4 3 4 5 5 6 5 5 5 4 3 4 3 2 1 1 1 0 0 0 1 1 0 1 3 4 3 3 5 5 7 7 5 7 8 9 9 5 4 7 9 9 7 8 8
6 6 4 2 2 2 1 6 10 9 7 6 9 10 8 7 6 5 4 4 4 5 5 5 5 6 5 4 4 3 3 3 3 1 0 0 0 0 0 0 1 2 4 3 3 4 6 6 8 8 8 9 10 11 10 6 8 7 7 7 6 7
6 6 5 3 1 0 1 6 12 9 8 9 11 9 7 6 6 4 3 4 4 4 4 5 5 5 5 5 6 7 6 5 4 4 3 2 1 1 2 2 2 3 4 4 3 4 6 5 7 7 8 8 9 10 12 8 7 6 6 8 8 7
7 7 5 3 3 3 3 10 13 10 9 12 7 6 7 8 6 5 3 4 5 4 5 5 5 5 5 5 5 5 5 4 5 5 5 5 4 4 4 4 4 5 5 6 5 4 4 5 5 7 8 9 9 9 10 11 9 9 7 7 8 7
7 8 5 4 4 5 6 10 12 11 12 10 5 6 6 7 7 5 6 7 7 7 6 5 5 5 5 5 4 5 5 5 4 4 4 3 3 3 4 4 3 4 4 5 7 5 3 4 4 6 8 8 10 9 9 10 11 11 8 7 7 6
6 7 8 6 6 6 8 8 12 12 12 6 6 6 5 4 5 6 8 9 8 8 7 6 6 7 7 6 6 7 6 6 5 5 3 4 4 3 3 3 2 3 4 5 7 6 5 3 4 5 7 9 10 11 11 11 10 10 11 8 7 6
5 7 10 9 8 8 8 9 9 11 5 3 5 4 3 4 6 8 8 8 8 8 8 8 8 7 7 6 5 5 4 5 5 5 5 5 5 5 5 5 5 5 5 6 6 7 7 6 5 6 5 5 6 7 10 10 10 10 11 9 9 11
6 8 9 10 8 8 8 9 9 7 5 5 3 3 4 5 6 7 7 8 7 8 9 9 8 8 7 7 6 5 4 4 5 5 5 5 5 4 4 4 4 5 5 5 6 6 6 6 5 5 4 5 5 5 5 5 6 6 6 5 5 7
6 7 8 10 8 8 8 9 9 7 7 6 6 6 5 6 6 6 6 7 6 6 6 7 9 9 8 8 8 8 8 6 5 6 5 5 4 4 5 4 5 5 5 5 5 6 6 6 5 3 4 6 6 5 4 3 3 4 4 5 6 5
8 8 9 9 7 7 8 8 8 8 9 9 8 7 7 7 6 5 5 5 5 6 5 5 5 6 7 7 7 6 4 6 6 5 4 1 1 1 2 3 5 3 2 2 4 5 7 6 5 3 1 5 6 5 5 5 4 4 4 6 8 7
8 9 9 8 7 7 8 8 8 8 9 8 8 7 8 6 5 5 6 5 5 5 5 5 5 5 5 5 6 7 8 7 6 5 3 4 4 3 5 5 3 4 3 4 5 4 4 6 8 10 13 11 9 8 8 8 9 8 8 8 11 6
7 7 8 6 6 7 7 8 9 9 10 9 8 8 7 6 5 5 6 6 6 7 6 5 5 5 4 5 5 5 5 5 5 7 7 6 6 7 9 8 8 9 8 5 4 5 8 12 13 14 12 12 11 10 9 9 9 9 8 7 4 2
7 7 6 5 5 6 7 9 10 10 10 10 9 7 6 6 5 5 5 5 5 7 7 6 6 6 6 5 5 5 7 8 8 4 3 5 4 6 9 10 11 8 5 6 6 5 5 6 9 12 12 12 11 11 9 9 8 8 7 7 4 4
5 5 5 5 5 6 7 8 9 10 10 10 9 9 8 8 7 6 5 5 5 6 6 6 7 7 7 8 8 7 7 7 7 10 8 2 4 8 7 8 7 7 7 7 8 9 9 11 12 13 13 13 12 11 9 9 9 8 8 5 3 5
6 6 5 5 5 6 7 8 9 9 10 9 9 8 8 8 7 6 6 6 6 6 5 6 6 6 6 6 5 6 6 6 6 6 8 12 8 1 3 4 4 6 8 8 9 10 12 13 13 13 12 13 14 13 10 6 6 8 8 7 5 5
6 6 6 6 5 7 8 8 9 9 9 9 9 8 8 7 7 6 6 10 8 5 5 5 5 5 5 5 5 6 6 6 6 6 7 7 9 12 11 6 5 5 7 7 7 9 12 12 12 12 12 14 16 16 12 7 6 6 3 3 4 5
5 5 4 5 4 6 7 7 8 9 9 9 9 8 8 7 7 6 6 5 6 6 5 6 6 6 6 6 6 5 6 6 5 6 5 6 7 8 10 10 7 6 6 10 11 12 12 11 11 11 13 14 15 16 11 7 7 6 6 5 5 5
Wind_Direction
252 249 246 245 242 239 239 243 242 236 230 227 223 226 223 224 221 219 221 219 220 222 222 220 221 222 223 224 225 222 218 218 218 220 224 225 221 217 213 208 211 210 211 213 218 215 216 217 217 214 214 212 219 221 223 222 215 221 228 226 220 227
255 251 249 250 242 237 237 239 244 241 232 226 229 234 236 233 228 222 223 222 222 225 226 227 225 223 223 223 221 220 220 220 220 222 224 224 219 216 212 212 212 210 210 211 214 215 215 216 218 214 214 213 219 221 220 221 213 221 229 229 220 225
266 262 254 245 242 240 240 233 230 232 228 228 226 223 228 226 226 219 223 221 224 225 225 223 220 223 221 223 221 221 223 224 224 224 225 224 221 214 214 214 215 212 212 211 211 214 215 215 217 214 214 214 220 222 222 220 216 222 229 227 227 223
268 268 260 258 255 251 243 237 235 237 227 222 220 221 225 225 226 219 226 224 227 225 227 226 224 223 220 220 219 221 223 224 224 224 222 221 222 213 217 218 218 215 212 211 213 215 216 217 218 214 210 216 219 223 219 220 218 223 229 226 230 226
265 269 266 250 238 237 236 236 225 226 225 223 221 216 227 220 226 222 228 234 234 234 232 231 229 224 221 220 221 222 222 224 225 219 219 221 222 215 216 220 217 215 211 213 216 215 215 217 217 212 211 216 219 220 219 218 218 220 224 226 229 228
278 277 260 255 250 245 241 233 229 230 230 227 222 225 234 225 225 223 224 233 239 240 237 233 230 224 222 221 222 223 223 224 223 214 218 219 219 216 219 219 215 211 210 215 217 215 215 214 215 213 212 217 218 220 221 218 218 220 223 226 229 227
290 261 244 240 243 243 238 233 231 229 235 229 226 234 236 229 209 208 220 224 239 241 238 238 229 225 223 223 221 225 222 221 215 204 208 210 215 217 214 216 212 212 210 216 216 216 215 215 213 213 214 217 218 219 220 220 219 220 223 225 227 224
287 281 262 247 240 238 239 235 234 235 241 239 232 242 248 243 218 213 215 223 232 242 241 242 238 233 229 227 226 226 220 215 208 208 211 208 217 215 213 211 209 210 216 217 218 217 216 214 212 212 215 215 216 218 220 221 220 222 223 226 226 224
295 282 288 295 291 262 238 229 240 243 240 251 249 258 266 256 224 224 217 227 226 241 243 241 240 243 245 241 236 228 219 213 211 209 213 206 212 207 208 209 209 212 215 219 217 218 216 214 211 214 216 218 216 216 218 220 223 224 224 227 227 227
301 293 285 277 266 276 279 256 233 228 230 253 250 229 231 235 216 222 221 220 236 240 250 247 251 252 251 250 244 234 227 219 214 214 211 194 202 208 209 206 208 213 211 219 218 219 213 213 212 214 216 216 214 213 217 219 222 224 226 228 230 228
306 306 300 285 286 278 269 271 281 284 271 257 256 239 233 212 204 224 222 223 229 235 232 238 243 243 249 244 240 234 229 222 216 209 203 199 205 208 209 207 206 209 214 221 220 218 212 212 216 213 212 213 215 213 218 219 221 222 226 228 229 228
304 292 296 298 298 301 301 300 289 272 253 250 238 230 235 170 207 209 219 224 234 237 231 232 238 239 240 244 240 236 230 223 218 210 206 207 207 208 206 203 205 206 211 214 217 216 212 217 220 218 212 208 208 210 215 217 219 219 222 225 229 232
300 294 298 294 291 280 275 270 273 282 276 267 260 242 229 175 204 210 211 228 230 225 229 229 235 229 240 238 242 243 232 227 220 215 217 217 210 208 206 200 205 210 210 208 208 211 214 219 221 218 212 211 211 210 212 214 219 216 221 224 227 232
286 294 295 302 305 299 295 296 290 298 269 284 282 291 300 175 200 215 241 249 245 233 218 216 214 216 234 239 238 230 228 227 220 221 221 221 220 221 206 208 214 213 208 208 211 214 217 222 221 216 213 209 211 210 213 216 219 219 222 224 228 232
252 263 285 301 321 338 324 314 306 283 266 272 273 301 120 189 213 235 255 264 249 247 225 200 189 204 216 225 230 244 246 233 235 239 235 232 240 217 213 225 220 221 214 207 213 222 224 229 223 217 215 214 214 214 214 226 226 225 228 229 231 234
259 261 264 260 275 332 310 308 304 301 303 275 76 101 69 83 358 334 291 289 273 265 262 253 215 214 222 215 246 320 276 266 245 251 253 251 212 212 226 226 224 227 217 216 220 227 231 231 224 209 211 214 213 214 210 224 229 233 236 235 234 234
241 263 338 1 349 359 358 337 340 318 319 327 49 35 83 63 58 8 340 320 307 318 315 310 294 278 263 241 205 195 213 218 237 241 241 234 228 222 222 218 220 223 217 220 223 231 236 237 213 204 208 210 207 208 204 217 223 234 238 237 232 229
201 195 189 301 32 9 27 328 322 331 314 335 12 25 45 68 57 27 9 346 326 325 327 326 295 279 285 280 259 220 221 214 214 223 238 247 264 280 271 260 234 226 230 235 233 242 252 253 218 213 216 220 217 213 216 220 227 231 238 241 240 238
211 205 179 109 89 52 9 322 300 280 332 14 1 25 30 44 42 24 8 353 340 330 323 311 278 290 289 296 284 275 271 251 251 252 224 228 255 262 271 255 248 245 242 261 260 260 270 269 247 246 273 273 268 263 247 247 255 256 256 257 258 259
310 310 84 122 104 112 165 211 135 77 51 23 7 18 21 29 24 12 10 347 337 330 327 329 242 259 287 283 250 255 269 285 286 249 191 203 226 234 235 251 276 292 296 281 273 269 275 273 266 261 260 257 247 230 241 245 249 255 254 260 258 258
97 15 10 34 44 357 1 75 92 79 61 36 16 20 22 13 2 7 355 332 321 320 323 334 5 30 312 299 291 297 290 287 279 302 154 231 247 259 332 331 285 299 312 309 299 309 288 282 292 289 279 277 275 269 266 261 259 262 257 261 264 260
101 66 44 29 3 325 19 88 78 70 60 42 44 36 16 353 343 338 338 324 321 320 336 351 5 24 29 346 319 314 276 287 315 332 176 226 127 305 22 34 337 293 290 306 302 284 279 284 282 274 268 271 273 265 259 257 257 258 266 266 270 275
97 91 87 42 339 321 53 93 80 65 51 40 42 31 7 336 322 339 349 341 347 356 358 2 19 17 14 23 0 344 11 21 358 357 28 325 62 67 10 215 210 240 262 261 247 249 256 248 262 267 248 247 252 253 246 251 247 257 263 268 267 262
101 99 82 73 77 315 117 95 84 78 63 50 33 7 346 336 331 335 5 22 21 11 12 18 18 37 36 25 27 22 13 4 13 22 17 34 38 5 331 344 336 313 300 297 280 266 274 271 262 281 287 267 252 252 248 246 253 252 266 268 265 267
100 89 91 76 67 48 45 80 79 75 69 55 29 8 355 342 335 340 16 33 33 28 23 19 32 38 40 42 44 53 38 20 21 11 29 25 22 18 358 351 352 342 318 309 303 299 290 291 294 278 280 285 280 267 259 254 258 261 256 261 268 270
107 102 91 79 71 64 55 69 75 66 61 44 13 27 17 354 338 347 21 28 24 20 18 16 26 37 47 50 58 69 64 44 31 53 47 47 50 30 3 346 356 339 320 310 308 310 304 306 304 295 288 290 290 282 268 264 260 258 257 259 267 275
98 96 82 63 59 57 61 62 74 65 58 24 21 21 28 2 352 8 20 22 18 14 4 6 18 22 26 27 33 40 36 38 39 41 37 47 46 50 31 348 2 343 320 321 322 324 334 331 315 299 303 306 306 303 300 294 285 275 266 265 266 264
72 75 76 58 44 46 51 54 62 70 57 31 27 11 17 15 28 26 15 17 19 10 0 8 8 14 18 23 30 43 47 44 30 34 19 33 35 35 27 4 360 355 350 338 331 332 330 331 334 324 317 320 315 311 305 306 306 295 287 277 275 275
54 61 67 64 42 45 42 51 51 59 61 48 28 24 29 31 34 30 20 17 12 10 9 8 5 357 1 12 10 19 28 30 29 26 28 34 34 24 35 16 9 353 348 340 329 326 326 325 332 325 322 325 327 312 306 317 311 307 303 294 279 275
41 47 53 56 44 48 49 48 45 40 43 40 28 26 35 41 32 33 21 13 11 13 10 8 1 3 1 0 5 3 359 7 13 17 9 359 356 13 356 356 351 336 330 327 321 326 327 327 329 317 330 337 334 315 301 291 294 292 297 294 284 278
38 37 43 42 36 44 52 50 44 38 37 31 27 23 30 24 19 22 25 15 13 11 7 8 8 4 358 352 354 360 351 334 335 340 330 300 198 222 305 310 305 289 240 241 289 318 323 319 321 303 275 313 302 295 302 304 289 278 275 263 272 287
55 49 40 29 23 32 39 41 35 33 33 31 27 25 33 21 15 18 14 10 9 7 3 5 3 0 358 355 350 343 341 336 305 278 283 316 332 271 243 221 249 274 307 293 266 220 245 287 288 303 312 309 307 296 283 276 278 275 274 276 279 277
60 61 56 41 33 33 36 38 31 27 23 23 23 24 25 20 23 19 10 6 6 359 356 355 358 354 352 349 347 344 337 333 344 309 284 263 287 320 321 300 262 268 268 235 270 265 246 264 280 289 292 296 297 297 294 294 292 292 291 297 319 292
67 61 53 42 46 48 45 43 33 27 18 16 17 16 27 27 29 24 8 4 355 354 356 356 352 350 352 351 353 353 349 345 340 350 288 290 324 313 307 304 308 317 311 272 256 279 300 280 284 297 301 301 297 291 287 282 283 281 284 287 279 272
68 58 51 45 41 50 52 50 36 25 16 8 8 11 19 20 21 20 10 5 360 358 356 356 355 350 350 346 347 347 350 347 347 332 329 274 280 296 282 285 301 319 332 317 303 284 273 288 299 302 303 305 305 300 290 281 276 270 263 264 243 234
64 51 42 39 39 53 59 50 34 21 11 3 360 3 10 8 8 5 7 1 357 358 355 352 344 340 335 336 330 333 332 335 328 324 319 322 320 234 255 257 297 309 301 288 282 286 293 298 301 306 310 311 310 308 306 288 272 269 254 230 236 229
55 44 29 26 38 56 54 41 24 16 6 2 357 356 360 359 359 358 357 356 356 352 343 338 327 325 323 323 327 326 329 321 322 312 314 312 311 315 318 317 308 297 291 296 293 285 286 291 295 300 308 312 311 309 313 305 291 296 286 242 235 244
57 42 22 11 32 64 59 38 22 14 5 359 354 353 353 352 352 355 350 346 346 340 332 327 324 321 320 317 316 314 312 311 307 307 297 292 294 300 303 306 310 310 309 291 285 286 289 293 298 300 305 302 300 302 326 322 297 292 283 278 271 261